Weather in Mashezero

Russia / Republic of Karelia     61°37′17″N   34°17′36″E
temp.,
°C
wind,
m/s
gust,
m/s
humid.,
%
clouds,
%
prec.,
mm/h
press.,
hPa
HPBL,
m
3 august, tue
tue300:00+15e51395100 2.5 996795
03:00+14e41299100 5.5 992488
06:00+16se41099100 2.1 989795
09:00+14sw81496100 2.6 9891039
12:00+14sw81796100 0.3 9931360
15:00+18sw816699 0.5 9961511
18:00+16sw613785 0.4 9981265
21:00+13sw5128946 0.4 1000899
4 august, wed
wed400:00+11wsw61283100 0.1 1002957
03:00+11wsw51185100 0.1 1004891
06:00+11wsw5107735 0.0 10061007
09:00+15wsw612550 0.0 10071626
12:00+18wsw711376 0.0 10092230
15:00+19wsw6103662 0.0 10102687
18:00+17wsw4846100 0.0 10121226
21:00+14w255828 0.0 1014200
5 august, thu
thu500:00+9w118139 0.0 101516
03:00+11wsw227288 0.0 101651
06:00+12wsw1368100 0.0 101799
09:00+14wsw126299 0.0 1017191
12:00+19sw123996 0.0 10172348
15:00+16ssw235488 0.1 1018829
18:00+17nnw115066 0.0 1018655
21:00+13e117043 0.0 101914
6 august, fri
fri600:00+11ne117541 0.0 101910
03:00+11ene117543 0.0 101920
06:00+12ne247584 0.0 1019100
09:00+17ene345676 0.0 1019592
12:00+18ene454636 0.0 10201786
15:00+19ene453843 0.0 10192330
18:00+17ene364917 0.0 10201213
21:00+12ene227724 0.0 102125
7 august, sat
sat700:00+14ene287161 0.0 1021316
03:00+10ne39895 0.0 1022226
06:00+11ene310752 0.0 1022441
09:00+15ene48600 0.0 1022759
12:00+18ene684447 0.0 10211767
15:00+19ene5839100 0.0 10211899
18:00+18ene494683 0.0 10211683
21:00+15ene31265100 0.0 1021447